Location: Arthez
(43.0833°N, 0.2500°W)
Time: 02:12:38
(UTC+00:00)

NOSS 3-1 (A) - Pass Details

Date: 03 June 2022
Orbit: 711 x 1501 km, 63.4° (Epoch: 21 May)

Event Time Altitude Azimuth Distance (km) Brightness Sun altitude
Rises 22:26:12 0° 322° (NW) 3,956 8.1 -21.1°
Reaches altitude 10° 22:28:43 10° 322° (NW) 3,098 7.2 -21.3°
Maximum altitude 22:36:21 83° 237° (WSW) 1,346 4.1 -21.8°
Enters shadow 22:40:35 35° 152° (SSE) 2,111 4.7 -22.1°
